Time,TemperatureF,DewpointF,PressureIn,WindDirection,WindDirectionDegrees,WindSpeedMPH,WindSpeedGustMPH,Humidity,HourlyPrecipIn,Conditions,Clouds,dailyrainin,SoftwareType,DateUTC
2013-01-18 00:02:00,42.4,23.2,30.32,SE,139,2.0,7.0,46,0.00,,,0.00,meteohub,2013-01-18 07:02:00,
2013-01-18 00:07:00,42.4,23.7,30.32,SSE,147,5.0,7.0,47,0.00,,,0.00,meteohub,2013-01-18 07:07:00,
2013-01-18 00:12:00,42.4,23.7,30.32,SE,137,6.0,7.0,47,0.00,,,0.00,meteohub,2013-01-18 07:12:00,
2013-01-18 00:17:00,42.6,23.4,30.32,SE,145,5.0,8.0,46,0.00,,,0.00,meteohub,2013-01-18 07:17:00,
2013-01-18 00:22:00,42.6,23.4,30.32,SE,146,7.0,9.0,46,0.00,,,0.00,meteohub,2013-01-18 07:22:00,
2013-01-18 00:27:00,42.8,23.4,30.32,SSE,167,6.0,9.0,46,0.00,,,0.00,meteohub,2013-01-18 07:27:00,
2013-01-18 00:32:00,42.8,23.4,30.32,SSE,161,4.0,9.0,46,0.00,,,0.00,meteohub,2013-01-18 07:32:00,
2013-01-18 00:37:00,42.4,23.2,30.32,SE,144,2.0,9.0,46,0.00,,,0.00,meteohub,2013-01-18 07:37:00,
2013-01-18 00:42:00,42.3,23.5,30.32,SE,136,3.0,9.0,47,0.00,,,0.00,meteohub,2013-01-18 07:42:00,
2013-01-18 00:47:00,41.9,23.2,30.32,SSE,153,2.0,7.0,47,0.00,,,0.00,meteohub,2013-01-18 07:47:00,
2013-01-18 00:52:00,41.7,23.5,30.32,SE,143,5.0,6.0,48,0.00,,,0.00,meteohub,2013-01-18 07:52:00,
2013-01-18 00:57:00,41.7,23.5,30.32,SSE,151,2.0,7.0,48,0.00,,,0.00,meteohub,2013-01-18 07:57:00,
2013-01-18 01:02:00,41.7,23.5,30.32,SE,135,1.0,7.0,48,0.00,,,0.00,meteohub,2013-01-18 08:02:00,
2013-01-18 01:07:00,41.7,23.5,30.32,SE,135,0.0,7.0,48,0.00,,,0.00,meteohub,2013-01-18 08:07:00,
2013-01-18 01:12:00,41.7,23.5,30.32,SE,144,0.0,7.0,48,0.00,,,0.00,meteohub,2013-01-18 08:12:00,
2013-01-18 01:17:00,41.2,23.0,30.32,SE,144,0.0,4.0,48,0.00,,,0.00,meteohub,2013-01-18 08:17:00,
2013-01-18 01:22:00,40.8,23.2,30.32,SE,144,0.0,4.0,49,0.00,,,0.00,meteohub,2013-01-18 08:22:00,
2013-01-18 01:27:00,40.6,23.5,30.32,ESE,121,0.0,0.0,50,0.00,,,0.00,meteohub,2013-01-18 08:27:00,
2013-01-18 01:32:00,40.5,22.8,30.32,ESE,121,0.0,1.0,49,0.00,,,0.00,meteohub,2013-01-18 08:32:00,
2013-01-18 01:37:00,39.9,22.8,30.32,ESE,121,0.0,1.0,50,0.00,,,0.00,meteohub,2013-01-18 08:37:00,
2013-01-18 01:42:00,39.9,23.2,30.32,SE,140,0.0,0.0,51,0.00,,,0.00,meteohub,2013-01-18 08:42:00,
2013-01-18 01:47:00,39.7,23.2,30.32,ESE,121,0.0,0.0,51,0.00,,,0.00,meteohub,2013-01-18 08:47:00,
2013-01-18 01:52:00,39.6,23.0,30.32,ESE,121,0.0,0.0,51,0.00,,,0.00,meteohub,2013-01-18 08:52:00,
2013-01-18 01:57:00,39.0,22.8,30.32,ESE,121,0.0,0.0,52,0.00,,,0.00,meteohub,2013-01-18 08:57:00,
2013-01-18 02:02:00,38.3,22.6,30.32,ESE,121,0.0,0.0,53,0.00,,,0.00,meteohub,2013-01-18 09:02:00,
2013-01-18 02:07:00,37.8,22.6,30.32,ESE,121,0.0,0.0,54,0.00,,,0.00,meteohub,2013-01-18 09:07:00,
2013-01-18 02:12:00,37.2,22.5,30.32,ESE,121,0.0,0.0,55,0.00,,,0.00,meteohub,2013-01-18 09:12:00,
2013-01-18 02:17:00,36.7,22.5,30.32,ESE,121,0.0,0.0,56,0.00,,,0.00,meteohub,2013-01-18 09:17:00,
2013-01-18 02:22:00,36.3,22.5,30.32,ESE,121,0.0,0.0,57,0.00,,,0.00,meteohub,2013-01-18 09:22:00,
2013-01-18 02:27:00,36.0,22.3,30.32,ESE,121,0.0,0.0,57,0.00,,,0.00,meteohub,2013-01-18 09:27:00,
2013-01-18 02:32:00,35.8,22.1,30.32,ESE,121,0.0,0.0,57,0.00,,,0.00,meteohub,2013-01-18 09:32:00,
2013-01-18 02:37:00,35.4,22.1,30.32,ESE,121,0.0,0.0,58,0.00,,,0.00,meteohub,2013-01-18 09:37:00,
2013-01-18 02:42:00,33.3,17.6,30.32,East,88,0.0,2.0,52,0.00,,,0.00,meteohub,2013-01-18 09:42:00,
2013-01-18 02:47:00,31.3,17.1,30.32,East,88,0.0,2.0,55,0.00,,,0.00,meteohub,2013-01-18 09:47:00,
2013-01-18 02:52:00,30.6,17.6,30.31,East,88,0.0,2.0,58,0.00,,,0.00,meteohub,2013-01-18 09:52:00,
2013-01-18 02:57:00,30.6,17.6,30.31,East,88,0.0,0.0,58,0.00,,,0.00,meteohub,2013-01-18 09:57:00,
2013-01-18 03:02:00,30.7,18.9,30.31,East,88,0.0,0.0,61,0.00,,,0.00,meteohub,2013-01-18 10:02:00,
2013-01-18 03:07:00,31.5,19.6,30.31,East,88,0.0,0.0,61,0.00,,,0.00,meteohub,2013-01-18 10:07:00,
2013-01-18 03:12:00,31.6,19.4,30.31,East,88,0.0,1.0,60,0.00,,,0.00,meteohub,2013-01-18 10:12:00,
2013-01-18 03:17:00,31.3,19.0,30.31,East,88,0.0,1.0,60,0.00,,,0.00,meteohub,2013-01-18 10:17:00,
2013-01-18 03:22:00,30.9,19.4,30.31,East,88,0.0,1.0,62,0.00,,,0.00,meteohub,2013-01-18 10:22:00,
2013-01-18 03:27:00,31.1,19.9,30.31,East,88,0.0,1.0,63,0.00,,,0.00,meteohub,2013-01-18 10:27:00,
2013-01-18 03:32:00,31.3,19.8,30.31,East,88,0.0,1.0,62,0.00,,,0.00,meteohub,2013-01-18 10:32:00,
2013-01-18 03:37:00,30.7,19.2,30.31,East,88,0.0,0.0,62,0.00,,,0.00,meteohub,2013-01-18 10:37:00,
2013-01-18 03:42:00,30.6,19.4,30.31,East,88,0.0,0.0,63,0.00,,,0.00,meteohub,2013-01-18 10:42:00,
2013-01-18 03:47:00,30.0,19.0,30.31,East,88,0.0,0.0,63,0.00,,,0.00,meteohub,2013-01-18 10:47:00,
2013-01-18 03:52:00,30.4,19.6,30.31,East,88,0.0,0.0,64,0.00,,,0.00,meteohub,2013-01-18 10:52:00,
2013-01-18 03:57:00,30.4,19.6,30.31,East,88,0.0,0.0,64,0.00,,,0.00,meteohub,2013-01-18 10:57:00,
2013-01-18 04:02:00,30.6,19.8,30.31,South,186,0.0,0.0,64,0.00,,,0.00,meteohub,2013-01-18 11:02:00,
2013-01-18 04:07:00,30.6,20.1,30.31,South,186,0.0,1.0,65,0.00,,,0.00,meteohub,2013-01-18 11:07:00,
2013-01-18 04:12:00,30.6,19.8,30.31,South,186,0.0,1.0,64,0.00,,,0.00,meteohub,2013-01-18 11:12:00,
2013-01-18 04:17:00,30.4,19.9,30.31,South,186,0.0,1.0,65,0.00,,,0.00,meteohub,2013-01-18 11:17:00,
2013-01-18 04:22:00,30.4,20.3,30.30,South,186,0.0,1.0,66,0.00,,,0.00,meteohub,2013-01-18 11:22:00,
2013-01-18 04:27:00,30.6,20.5,30.30,South,186,0.0,0.0,66,0.00,,,0.00,meteohub,2013-01-18 11:27:00,
2013-01-18 04:32:00,30.6,20.5,30.30,SSW,210,0.0,0.0,66,0.00,,,0.00,meteohub,2013-01-18 11:32:00,
2013-01-18 04:37:00,30.9,20.5,30.30,SSW,210,0.0,0.0,65,0.00,,,0.00,meteohub,2013-01-18 11:37:00,
2013-01-18 04:42:00,31.1,20.7,30.31,SSW,210,0.0,3.0,65,0.00,,,0.00,meteohub,2013-01-18 11:42:00,
2013-01-18 04:47:00,31.1,20.7,30.30,WNW,292,0.0,3.0,65,0.00,,,0.00,meteohub,2013-01-18 11:47:00,
2013-01-18 04:53:00,31.6,21.2,30.30,WNW,292,0.0,3.0,65,0.00,,,0.00,meteohub,2013-01-18 11:53:00,
2013-01-18 04:58:00,31.6,20.8,30.31,WNW,292,0.0,1.0,64,0.00,,,0.00,meteohub,2013-01-18 11:58:00,
2013-01-18 05:03:00,32.2,21.4,30.30,WNW,292,2.0,4.0,64,0.00,,,0.00,meteohub,2013-01-18 12:03:00,
2013-01-18 05:08:00,32.5,21.4,30.31,WNW,292,0.0,4.0,63,0.00,,,0.00,meteohub,2013-01-18 12:08:00,
2013-01-18 05:13:00,32.2,21.0,30.31,WNW,292,0.0,4.0,63,0.00,,,0.00,meteohub,2013-01-18 12:13:00,
2013-01-18 05:18:00,32.0,20.8,30.31,WNW,292,0.0,4.0,63,0.00,,,0.00,meteohub,2013-01-18 12:18:00,
2013-01-18 05:23:00,31.6,20.1,30.31,WNW,292,0.0,0.0,62,0.00,,,0.00,meteohub,2013-01-18 12:23:00,
2013-01-18 05:28:00,30.9,19.8,30.31,WNW,292,0.0,0.0,63,0.00,,,0.00,meteohub,2013-01-18 12:28:00,
2013-01-18 05:33:00,30.7,19.9,30.31,WNW,292,0.0,0.0,64,0.00,,,0.00,meteohub,2013-01-18 12:33:00,
2013-01-18 05:38:00,30.2,19.6,30.31,WNW,292,0.0,0.0,64,0.00,,,0.00,meteohub,2013-01-18 12:38:00,
2013-01-18 05:43:00,30.0,19.4,30.31,WNW,292,0.0,0.0,64,0.00,,,0.00,meteohub,2013-01-18 12:43:00,
2013-01-18 05:48:00,29.7,19.4,30.31,WNW,292,0.0,0.0,65,0.00,,,0.00,meteohub,2013-01-18 12:48:00,
2013-01-18 05:53:00,29.7,19.4,30.31,WNW,292,0.0,0.0,65,0.00,,,0.00,meteohub,2013-01-18 12:53:00,
2013-01-18 05:58:00,29.7,19.8,30.31,WNW,292,0.0,0.0,66,0.00,,,0.00,meteohub,2013-01-18 12:58:00,
2013-01-18 06:03:00,29.7,19.8,30.31,WNW,292,0.0,0.0,66,0.00,,,0.00,meteohub,2013-01-18 13:03:00,
2013-01-18 06:08:00,29.7,20.1,30.31,WNW,292,0.0,0.0,67,0.00,,,0.00,meteohub,2013-01-18 13:08:00,
2013-01-18 06:13:00,29.5,20.3,30.31,WNW,292,0.0,0.0,68,0.00,,,0.00,meteohub,2013-01-18 13:13:00,
2013-01-18 06:18:00,29.5,20.3,30.31,WNW,292,0.0,0.0,68,0.00,,,0.00,meteohub,2013-01-18 13:18:00,
2013-01-18 06:23:00,29.1,19.9,30.31,WNW,292,0.0,0.0,68,0.00,,,0.00,meteohub,2013-01-18 13:23:00,
2013-01-18 06:28:00,28.9,20.1,30.31,WNW,292,0.0,0.0,69,0.00,,,0.00,meteohub,2013-01-18 13:28:00,
2013-01-18 06:33:00,28.9,20.1,30.31,WNW,292,0.0,0.0,69,0.00,,,0.00,meteohub,2013-01-18 13:33:00,
2013-01-18 06:38:00,28.9,20.1,30.31,WNW,292,0.0,0.0,69,0.00,,,0.00,meteohub,2013-01-18 13:38:00,
2013-01-18 06:44:00,28.8,19.6,30.31,WNW,292,0.0,0.0,68,0.00,,,0.00,meteohub,2013-01-18 13:44:00,
2013-01-18 06:49:00,28.6,20.1,30.31,WNW,292,0.0,0.0,70,0.00,,,0.00,meteohub,2013-01-18 13:49:00,
2013-01-18 06:54:00,28.6,20.1,30.31,WNW,292,0.0,0.0,70,0.00,,,0.00,meteohub,2013-01-18 13:54:00,
2013-01-18 06:59:00,28.6,20.1,30.31,WNW,292,0.0,0.0,70,0.00,,,0.00,meteohub,2013-01-18 13:59:00,
2013-01-18 07:04:00,28.9,20.5,30.31,WNW,292,0.0,0.0,70,0.00,,,0.00,meteohub,2013-01-18 14:04:00,
2013-01-18 07:09:00,29.5,20.8,30.31,WNW,292,0.0,0.0,70,0.00,,,0.00,meteohub,2013-01-18 14:09:00,
2013-01-18 07:14:00,29.5,20.7,30.31,WNW,292,0.0,0.0,69,0.00,,,0.00,meteohub,2013-01-18 14:14:00,
2013-01-18 07:19:00,29.1,20.5,30.31,WNW,292,0.0,0.0,70,0.00,,,0.00,meteohub,2013-01-18 14:19:00,
2013-01-18 07:24:00,29.1,20.5,30.31,WNW,292,0.0,0.0,70,0.00,,,0.00,meteohub,2013-01-18 14:24:00,
2013-01-18 07:29:00,29.8,21.2,30.31,WNW,292,0.0,0.0,70,0.00,,,0.00,meteohub,2013-01-18 14:29:00,
2013-01-18 07:34:00,30.4,21.4,30.31,WNW,292,0.0,0.0,69,0.00,,,0.00,meteohub,2013-01-18 14:34:00,
2013-01-18 07:39:00,31.3,21.6,30.31,WNW,292,2.0,0.0,67,0.00,,,0.00,meteohub,2013-01-18 14:39:00,
2013-01-18 07:44:00,32.4,22.3,30.31,WNW,292,1.0,3.0,66,0.00,,,0.00,meteohub,2013-01-18 14:44:00,
2013-01-18 07:49:00,32.9,22.5,30.32,WNW,292,1.0,4.0,65,0.00,,,0.00,meteohub,2013-01-18 14:49:00,
2013-01-18 07:54:00,33.4,22.6,30.32,WNW,292,2.0,4.0,64,0.00,,,0.00,meteohub,2013-01-18 14:54:00,
2013-01-18 07:59:00,34.3,23.0,30.32,WNW,292,0.0,4.0,63,0.00,,,0.00,meteohub,2013-01-18 14:59:00,
2013-01-18 08:04:00,35.1,23.4,30.32,WNW,292,1.0,4.0,62,0.00,,,0.00,meteohub,2013-01-18 15:04:00,
2013-01-18 08:09:00,35.2,22.8,30.32,WNW,292,0.0,4.0,60,0.00,,,0.00,meteohub,2013-01-18 15:09:00,
2013-01-18 08:14:00,35.8,23.2,30.32,WNW,292,2.0,4.0,60,0.00,,,0.00,meteohub,2013-01-18 15:14:00,
2013-01-18 08:19:00,35.8,22.5,30.33,WNW,292,0.0,3.0,58,0.00,,,0.00,meteohub,2013-01-18 15:19:00,
2013-01-18 08:24:00,36.0,23.0,30.33,WNW,292,1.0,3.0,59,0.00,,,0.00,meteohub,2013-01-18 15:24:00,
2013-01-18 08:29:00,36.0,22.6,30.33,WNW,293,1.0,3.0,58,0.00,,,0.00,meteohub,2013-01-18 15:29:00,
2013-01-18 08:34:00,37.0,23.2,30.33,NNW,348,0.0,5.0,57,0.00,,,0.00,meteohub,2013-01-18 15:34:00,
2013-01-18 08:40:00,37.9,23.7,30.33,NNW,348,3.0,5.0,56,0.00,,,0.00,meteohub,2013-01-18 15:40:00,
2013-01-18 08:45:00,38.5,23.7,30.33,North,350,4.0,5.0,55,0.00,,,0.00,meteohub,2013-01-18 15:45:00,
2013-01-18 08:50:00,39.0,23.7,30.34,North,350,2.0,5.0,54,0.00,,,0.00,meteohub,2013-01-18 15:50:00,
2013-01-18 08:55:00,39.4,23.7,30.34,North,351,2.0,5.0,53,0.00,,,0.00,meteohub,2013-01-18 15:55:00,
2013-01-18 09:00:00,39.9,23.7,30.34,North,351,2.0,5.0,52,0.00,,,0.00,meteohub,2013-01-18 16:00:00,
2013-01-18 09:05:00,40.5,23.7,30.34,North,351,2.0,5.0,51,0.00,,,0.00,meteohub,2013-01-18 16:05:00,
2013-01-18 09:10:00,41.0,23.7,30.34,North,355,0.0,5.0,50,0.00,,,0.00,meteohub,2013-01-18 16:10:00,
2013-01-18 09:15:00,41.5,23.7,30.34,North,355,4.0,5.0,49,0.00,,,0.00,meteohub,2013-01-18 16:15:00,
2013-01-18 09:20:00,41.7,23.5,30.35,North,355,1.0,5.0,48,0.00,,,0.00,meteohub,2013-01-18 16:20:00,
2013-01-18 09:25:00,42.3,23.9,30.35,North,355,2.0,5.0,48,0.00,,,0.00,meteohub,2013-01-18 16:25:00,
2013-01-18 09:30:00,42.8,23.9,30.35,North,355,4.0,4.0,47,0.00,,,0.00,meteohub,2013-01-18 16:30:00,
2013-01-18 09:35:00,43.3,23.9,30.35,North,0,0.0,4.0,46,0.00,,,0.00,meteohub,2013-01-18 16:35:00,
2013-01-18 09:40:00,44.1,24.1,30.35,North,0,0.0,4.0,45,0.00,,,0.00,meteohub,2013-01-18 16:40:00,
2013-01-18 09:45:00,44.1,24.1,30.35,North,0,0.0,4.0,45,0.00,,,0.00,meteohub,2013-01-18 16:45:00,
2013-01-18 09:50:00,45.0,24.4,30.35,North,0,0.0,2.0,44,0.00,,,0.00,meteohub,2013-01-18 16:50:00,
2013-01-18 09:55:00,45.3,24.1,30.35,North,5,0.0,1.0,43,0.00,,,0.00,meteohub,2013-01-18 16:55:00,
2013-01-18 10:00:00,46.0,24.3,30.35,East,91,1.0,4.0,42,0.00,,,0.00,meteohub,2013-01-18 17:00:00,
2013-01-18 10:05:00,46.0,24.3,30.35,East,91,0.0,5.0,42,0.00,,,0.00,meteohub,2013-01-18 17:05:00,
2013-01-18 10:10:00,46.8,24.3,30.35,East,90,0.0,5.0,41,0.00,,,0.00,meteohub,2013-01-18 17:10:00,
2013-01-18 10:16:00,47.5,24.4,30.35,East,88,5.0,5.0,40,0.00,,,0.00,meteohub,2013-01-18 17:16:00,
2013-01-18 10:21:00,48.0,24.3,30.34,ENE,67,0.0,6.0,39,0.00,,,0.00,meteohub,2013-01-18 17:21:00,
2013-01-18 10:26:00,47.8,24.1,30.34,ENE,73,0.0,6.0,39,0.00,,,0.00,meteohub,2013-01-18 17:26:00,
2013-01-18 10:31:00,48.2,24.4,30.34,ENE,78,0.0,6.0,39,0.00,,,0.00,meteohub,2013-01-18 17:31:00,
2013-01-18 10:36:00,48.6,24.8,30.34,ENE,78,0.0,5.0,39,0.00,,,0.00,meteohub,2013-01-18 17:36:00,
2013-01-18 10:41:00,49.5,24.3,30.34,ENE,78,3.0,5.0,37,0.00,,,0.00,meteohub,2013-01-18 17:41:00,
2013-01-18 10:46:00,49.6,24.4,30.34,East,96,2.0,6.0,37,0.00,,,0.00,meteohub,2013-01-18 17:46:00,
2013-01-18 10:51:00,50.2,24.3,30.33,East,96,3.0,7.0,36,0.00,,,0.00,meteohub,2013-01-18 17:51:00,
2013-01-18 10:56:00,50.5,23.2,30.33,SSE,157,6.0,9.0,34,0.00,,,0.00,meteohub,2013-01-18 17:56:00,
2013-01-18 11:01:00,50.4,23.0,30.33,SE,140,0.0,9.0,34,0.00,,,0.00,meteohub,2013-01-18 18:01:00,
2013-01-18 11:06:00,51.1,23.7,30.33,East,92,1.0,9.0,34,0.00,,,0.00,meteohub,2013-01-18 18:06:00,
2013-01-18 11:11:00,51.4,23.4,30.32,East,89,0.0,7.0,33,0.00,,,0.00,meteohub,2013-01-18 18:11:00,
2013-01-18 11:16:00,51.6,22.6,30.32,East,89,0.0,5.0,32,0.00,,,0.00,meteohub,2013-01-18 18:16:00,
2013-01-18 11:21:00,52.2,23.2,30.32,East,88,2.0,6.0,32,0.00,,,0.00,meteohub,2013-01-18 18:21:00,
2013-01-18 11:26:00,52.7,23.7,30.32,East,93,3.0,6.0,32,0.00,,,0.00,meteohub,2013-01-18 18:26:00,
2013-01-18 11:31:00,53.2,22.6,30.31,SE,135,4.0,6.0,30,0.00,,,0.00,meteohub,2013-01-18 18:31:00,
2013-01-18 11:36:00,53.1,21.6,30.31,South,174,4.0,9.0,29,0.00,,,0.00,meteohub,2013-01-18 18:36:00,
2013-01-18 11:41:00,52.5,21.2,30.30,SE,137,2.0,9.0,29,0.00,,,0.00,meteohub,2013-01-18 18:41:00,
2013-01-18 11:47:00,52.5,21.2,30.30,South,184,7.0,9.0,29,0.00,,,0.00,meteohub,2013-01-18 18:47:00,
2013-01-18 11:52:00,53.2,21.0,30.30,South,188,3.0,7.0,28,0.00,,,0.00,meteohub,2013-01-18 18:52:00,
2013-01-18 11:57:00,52.9,21.6,30.29,NNW,331,0.0,7.0,29,0.00,,,0.00,meteohub,2013-01-18 18:57:00,
2013-01-18 12:02:00,53.8,21.4,30.29,SSE,154,7.0,7.0,28,0.00,,,0.00,meteohub,2013-01-18 19:02:00,
2013-01-18 12:07:00,54.3,21.9,30.28,ESE,113,2.0,8.0,28,0.00,,,0.00,meteohub,2013-01-18 19:07:00,
2013-01-18 12:12:00,54.3,21.9,30.28,ESE,113,0.0,8.0,28,0.00,,,0.00,meteohub,2013-01-18 19:12:00,
2013-01-18 12:17:00,54.3,21.9,30.27,NW,315,0.0,8.0,28,0.00,,,0.00,meteohub,2013-01-18 19:17:00,
2013-01-18 12:22:00,54.7,22.3,30.27,SE,140,8.0,8.0,28,0.00,,,0.00,meteohub,2013-01-18 19:22:00,
2013-01-18 12:27:00,55.2,21.7,30.27,SW,217,6.0,8.0,27,0.00,,,0.00,meteohub,2013-01-18 19:27:00,
2013-01-18 12:32:00,55.0,20.8,30.27,SSW,192,1.0,8.0,26,0.00,,,0.00,meteohub,2013-01-18 19:32:00,
2013-01-18 12:37:00,55.2,21.7,30.26,South,191,1.0,8.0,27,0.00,,,0.00,meteohub,2013-01-18 19:37:00,
2013-01-18 12:42:00,54.9,21.6,30.26,South,191,0.0,7.0,27,0.00,,,0.00,meteohub,2013-01-18 19:42:00,
2013-01-18 12:47:00,54.9,21.6,30.25,SSW,192,1.0,7.0,27,0.00,,,0.00,meteohub,2013-01-18 19:47:00,
2013-01-18 12:52:00,55.2,20.8,30.25,SSE,156,3.0,7.0,26,0.00,,,0.00,meteohub,2013-01-18 19:52:00,
2013-01-18 12:57:00,55.2,20.8,30.25,SSE,157,2.0,7.0,26,0.00,,,0.00,meteohub,2013-01-18 19:57:00,
2013-01-18 13:02:00,54.9,20.7,30.25,SSE,157,0.0,7.0,26,0.00,,,0.00,meteohub,2013-01-18 20:02:00,
2013-01-18 13:07:00,54.9,20.7,30.24,SSE,157,1.0,5.0,26,0.00,,,0.00,meteohub,2013-01-18 20:07:00,
2013-01-18 13:12:00,55.6,21.2,30.24,SSE,158,3.0,4.0,26,0.00,,,0.00,meteohub,2013-01-18 20:12:00,
2013-01-18 13:17:00,56.1,21.7,30.24,SSE,158,1.0,3.0,26,0.00,,,0.00,meteohub,2013-01-18 20:17:00,
2013-01-18 13:22:00,56.7,21.2,30.24,SSE,159,5.0,5.0,25,0.00,,,0.00,meteohub,2013-01-18 20:22:00,
2013-01-18 13:27:00,56.5,20.1,30.23,SSE,159,0.0,5.0,24,0.00,,,0.00,meteohub,2013-01-18 20:27:00,
2013-01-18 13:32:00,56.7,21.2,30.23,SSE,159,1.0,5.0,25,0.00,,,0.00,meteohub,2013-01-18 20:32:00,
2013-01-18 13:37:00,56.8,20.5,30.23,ESE,122,0.0,5.0,24,0.00,,,0.00,meteohub,2013-01-18 20:37:00,
2013-01-18 13:42:00,56.8,21.4,30.23,South,190,5.0,5.0,25,0.00,,,0.00,meteohub,2013-01-18 20:42:00,
2013-01-18 13:47:00,56.7,20.3,30.23,NW,304,0.0,7.0,24,0.00,,,0.00,meteohub,2013-01-18 20:47:00,
2013-01-18 13:52:00,57.2,20.7,30.23,WNW,296,0.0,7.0,24,0.00,,,0.00,meteohub,2013-01-18 20:52:00,
2013-01-18 13:57:00,57.9,20.3,30.23,WNW,296,2.0,7.0,23,0.00,,,0.00,meteohub,2013-01-18 20:57:00,
2013-01-18 14:02:00,57.6,19.9,30.22,ESE,108,3.0,3.0,23,0.00,,,0.00,meteohub,2013-01-18 21:02:00,
2013-01-18 14:07:00,57.6,19.9,30.22,East,87,0.0,5.0,23,0.00,,,0.00,meteohub,2013-01-18 21:07:00,
2013-01-18 14:12:00,57.6,19.9,30.22,SW,229,1.0,5.0,23,0.00,,,0.00,meteohub,2013-01-18 21:12:00,
2013-01-18 14:17:00,57.6,19.0,30.22,West,263,5.0,5.0,22,0.00,,,0.00,meteohub,2013-01-18 21:17:00,
2013-01-18 14:22:00,57.2,19.8,30.22,NW,306,4.0,8.0,23,0.00,,,0.00,meteohub,2013-01-18 21:22:00,
2013-01-18 14:27:00,56.8,19.4,30.22,NW,306,2.0,8.0,23,0.00,,,0.00,meteohub,2013-01-18 21:27:00,
2013-01-18 14:32:00,56.8,19.4,30.22,NW,307,1.0,8.0,23,0.00,,,0.00,meteohub,2013-01-18 21:32:00,
2013-01-18 14:37:00,57.6,19.0,30.22,NW,307,1.0,7.0,22,0.00,,,0.00,meteohub,2013-01-18 21:37:00,
2013-01-18 14:42:00,57.6,19.0,30.22,NW,307,0.0,3.0,22,0.00,,,0.00,meteohub,2013-01-18 21:42:00,
2013-01-18 14:47:00,57.7,20.1,30.22,NW,308,3.0,3.0,23,0.00,,,0.00,meteohub,2013-01-18 21:47:00,
2013-01-18 14:52:00,57.9,20.3,30.22,SSE,149,3.0,6.0,23,0.00,,,0.00,meteohub,2013-01-18 21:52:00,
2013-01-18 14:57:00,57.7,19.2,30.22,SSE,149,2.0,6.0,22,0.00,,,0.00,meteohub,2013-01-18 21:57:00,
2013-01-18 15:02:00,58.1,19.4,30.22,SSE,149,0.0,6.0,22,0.00,,,0.00,meteohub,2013-01-18 22:02:00,
2013-01-18 15:07:00,57.7,19.2,30.22,SSE,149,3.0,5.0,22,0.00,,,0.00,meteohub,2013-01-18 22:07:00,
2013-01-18 15:12:00,58.3,18.5,30.21,South,189,3.0,4.0,21,0.00,,,0.00,meteohub,2013-01-18 22:12:00,
2013-01-18 15:17:00,58.1,17.2,30.21,South,184,0.0,6.0,20,0.00,,,0.00,meteohub,2013-01-18 22:17:00,
2013-01-18 15:22:00,58.3,17.4,30.21,South,183,2.0,6.0,20,0.00,,,0.00,meteohub,2013-01-18 22:22:00,
2013-01-18 15:27:00,58.1,17.2,30.21,SSW,197,2.0,6.0,20,0.00,,,0.00,meteohub,2013-01-18 22:27:00,
2013-01-18 15:32:00,57.9,17.1,30.21,South,190,1.0,6.0,20,0.00,,,0.00,meteohub,2013-01-18 22:32:00,
2013-01-18 15:37:00,57.9,18.1,30.21,South,171,0.0,6.0,21,0.00,,,0.00,meteohub,2013-01-18 22:37:00,
2013-01-18 15:42:00,57.6,18.0,30.21,South,171,0.0,5.0,21,0.00,,,0.00,meteohub,2013-01-18 22:42:00,
2013-01-18 15:47:00,57.7,18.1,30.21,SSE,162,2.0,5.0,21,0.00,,,0.00,meteohub,2013-01-18 22:47:00,
2013-01-18 15:52:00,57.6,18.0,30.21,WSW,246,1.0,4.0,21,0.00,,,0.00,meteohub,2013-01-18 22:52:00,
2013-01-18 15:57:00,57.2,17.6,30.20,WSW,248,0.0,4.0,21,0.00,,,0.00,meteohub,2013-01-18 22:57:00,
2013-01-18 16:02:00,57.0,17.4,30.20,WSW,248,0.0,4.0,21,0.00,,,0.00,meteohub,2013-01-18 23:02:00,
2013-01-18 16:07:00,57.0,17.4,30.20,WSW,248,0.0,3.0,21,0.00,,,0.00,meteohub,2013-01-18 23:07:00,
2013-01-18 16:12:00,57.0,17.4,30.20,ESE,112,2.0,4.0,21,0.00,,,0.00,meteohub,2013-01-18 23:12:00,
2013-01-18 16:17:00,56.8,17.2,30.20,ESE,112,0.0,4.0,21,0.00,,,0.00,meteohub,2013-01-18 23:17:00,
2013-01-18 16:22:00,56.8,17.2,30.20,ESE,112,0.0,4.0,21,0.00,,,0.00,meteohub,2013-01-18 23:22:00,
2013-01-18 16:27:00,56.8,17.2,30.20,ESE,112,0.0,3.0,21,0.00,,,0.00,meteohub,2013-01-18 23:27:00,
2013-01-18 16:32:00,57.0,17.4,30.20,ESE,112,1.0,2.0,21,0.00,,,0.00,meteohub,2013-01-18 23:32:00,
2013-01-18 16:37:00,57.0,17.4,30.20,ESE,112,0.0,3.0,21,0.00,,,0.00,meteohub,2013-01-18 23:37:00,
2013-01-18 16:42:00,57.0,17.4,30.20,ESE,112,0.0,3.0,21,0.00,,,0.00,meteohub,2013-01-18 23:42:00,
2013-01-18 16:47:00,56.8,17.2,30.20,ESE,112,0.0,3.0,21,0.00,,,0.00,meteohub,2013-01-18 23:47:00,
2013-01-18 16:52:00,56.8,17.2,30.20,ESE,112,0.0,2.0,21,0.00,,,0.00,meteohub,2013-01-18 23:52:00,
2013-01-18 16:57:00,56.5,17.1,30.20,ESE,112,0.0,2.0,21,0.00,,,0.00,meteohub,2013-01-18 23:57:00,
2013-01-18 17:02:00,56.5,17.1,30.20,ESE,112,0.0,2.0,21,0.00,,,0.00,meteohub,2013-01-19 00:02:00,
2013-01-18 17:07:00,56.3,18.0,30.20,ESE,112,0.0,1.0,22,0.00,,,0.00,meteohub,2013-01-19 00:07:00,
2013-01-18 17:12:00,56.1,17.8,30.20,ESE,112,0.0,0.0,22,0.00,,,0.00,meteohub,2013-01-19 00:12:00,
2013-01-18 17:17:00,55.8,17.4,30.20,ESE,112,0.0,0.0,22,0.00,,,0.00,meteohub,2013-01-19 00:17:00,
2013-01-18 17:22:00,55.4,18.1,30.20,ESE,112,0.0,0.0,23,0.00,,,0.00,meteohub,2013-01-19 00:22:00,
2013-01-18 17:27:00,55.0,18.0,30.21,ESE,112,0.0,0.0,23,0.00,,,0.00,meteohub,2013-01-19 00:27:00,
2013-01-18 17:32:00,54.3,18.3,30.21,ESE,112,0.0,0.0,24,0.00,,,0.00,meteohub,2013-01-19 00:32:00,
2013-01-18 17:37:00,54.1,18.1,30.21,ESE,112,0.0,0.0,24,0.00,,,0.00,meteohub,2013-01-19 00:37:00,
2013-01-18 17:42:00,53.4,17.6,30.21,ESE,112,0.0,0.0,24,0.00,,,0.00,meteohub,2013-01-19 00:42:00,
2013-01-18 17:47:00,52.3,17.6,30.21,ESE,112,0.0,2.0,25,0.00,,,0.00,meteohub,2013-01-19 00:47:00,
2013-01-18 17:53:00,51.8,18.0,30.21,ESE,112,0.0,2.0,26,0.00,,,0.00,meteohub,2013-01-19 00:53:00,
2013-01-18 17:58:00,51.3,18.3,30.21,ESE,112,0.0,2.0,27,0.00,,,0.00,meteohub,2013-01-19 00:58:00,
2013-01-18 18:03:00,50.5,18.7,30.21,ESE,112,0.0,1.0,28,0.00,,,0.00,meteohub,2013-01-19 01:03:00,
2013-01-18 18:08:00,49.6,17.8,30.21,ESE,112,3.0,0.0,28,0.00,,,0.00,meteohub,2013-01-19 01:08:00,
2013-01-18 18:13:00,49.1,17.4,30.21,ESE,112,0.0,3.0,28,0.00,,,0.00,meteohub,2013-01-19 01:13:00,
2013-01-18 18:18:00,48.7,18.0,30.22,ESE,112,0.0,3.0,29,0.00,,,0.00,meteohub,2013-01-19 01:18:00,
2013-01-18 18:23:00,48.6,17.8,30.22,ESE,112,0.0,3.0,29,0.00,,,0.00,meteohub,2013-01-19 01:23:00,
2013-01-18 18:28:00,48.0,17.2,30.22,ESE,112,0.0,2.0,29,0.00,,,0.00,meteohub,2013-01-19 01:28:00,
2013-01-18 18:33:00,47.8,18.0,30.22,ESE,112,0.0,3.0,30,0.00,,,0.00,meteohub,2013-01-19 01:33:00,
2013-01-18 18:38:00,47.5,17.6,30.21,ESE,112,0.0,3.0,30,0.00,,,0.00,meteohub,2013-01-19 01:38:00,
2013-01-18 18:43:00,46.9,17.8,30.22,ESE,112,0.0,1.0,31,0.00,,,0.00,meteohub,2013-01-19 01:43:00,
2013-01-18 18:48:00,46.2,18.0,30.22,ESE,112,0.0,1.0,32,0.00,,,0.00,meteohub,2013-01-19 01:48:00,
2013-01-18 18:54:00,45.9,16.9,30.22,NE,51,0.0,0.0,31,0.00,,,0.00,meteohub,2013-01-19 01:54:00,
2013-01-18 18:59:00,45.9,17.6,30.22,NE,51,0.0,5.0,32,0.00,,,0.00,meteohub,2013-01-19 01:59:00,
2013-01-18 19:04:00,45.9,17.6,30.22,NE,51,0.0,5.0,32,0.00,,,0.00,meteohub,2013-01-19 02:04:00,
2013-01-18 19:09:00,45.3,18.0,30.21,NE,51,0.0,5.0,33,0.00,,,0.00,meteohub,2013-01-19 02:09:00,
2013-01-18 19:14:00,44.4,17.8,30.22,NE,51,0.0,2.0,34,0.00,,,0.00,meteohub,2013-01-19 02:14:00,
2013-01-18 19:19:00,43.9,18.0,30.22,NE,51,1.0,0.0,35,0.00,,,0.00,meteohub,2013-01-19 02:19:00,
2013-01-18 19:24:00,43.5,17.6,30.22,NE,51,1.0,1.0,35,0.00,,,0.00,meteohub,2013-01-19 02:24:00,
2013-01-18 19:29:00,43.5,17.6,30.22,NE,51,0.0,2.0,35,0.00,,,0.00,meteohub,2013-01-19 02:29:00,
2013-01-18 19:34:00,43.3,18.1,30.22,NE,51,0.0,2.0,36,0.00,,,0.00,meteohub,2013-01-19 02:34:00,
2013-01-18 19:39:00,43.2,18.0,30.22,NE,51,0.0,2.0,36,0.00,,,0.00,meteohub,2013-01-19 02:39:00,
2013-01-18 19:44:00,43.0,17.8,30.22,NE,51,0.0,2.0,36,0.00,,,0.00,meteohub,2013-01-19 02:44:00,
2013-01-18 19:49:00,42.8,17.6,30.22,NE,51,0.0,0.0,36,0.00,,,0.00,meteohub,2013-01-19 02:49:00,
2013-01-18 19:54:00,42.4,18.0,30.22,NE,51,0.0,0.0,37,0.00,,,0.00,meteohub,2013-01-19 02:54:00,
2013-01-18 19:59:00,42.3,17.8,30.22,NE,51,1.0,0.0,37,0.00,,,0.00,meteohub,2013-01-19 02:59:00,
2013-01-18 20:04:00,42.3,17.8,30.22,NE,51,0.0,2.0,37,0.00,,,0.00,meteohub,2013-01-19 03:04:00,
2013-01-18 20:09:00,42.3,17.8,30.22,NE,51,0.0,2.0,37,0.00,,,0.00,meteohub,2013-01-19 03:09:00,
2013-01-18 20:14:00,42.4,18.0,30.22,NE,51,0.0,2.0,37,0.00,,,0.00,meteohub,2013-01-19 03:14:00,
2013-01-18 20:19:00,42.3,17.8,30.22,NE,51,0.0,2.0,37,0.00,,,0.00,meteohub,2013-01-19 03:19:00,
2013-01-18 20:25:00,42.3,18.5,30.22,NE,51,0.0,0.0,38,0.00,,,0.00,meteohub,2013-01-19 03:25:00,
2013-01-18 20:30:00,42.4,18.7,30.26,NE,51,0.0,0.0,38,0.00,,,0.00,meteohub,2013-01-19 03:30:00,
2013-01-18 20:35:00,41.4,17.6,30.26,NE,51,0.0,0.0,38,0.00,,,0.00,meteohub,2013-01-19 03:35:00,
2013-01-18 20:41:00,40.6,18.1,30.26,NE,51,0.0,0.0,40,0.00,,,0.00,meteohub,2013-01-19 03:41:00,
2013-01-18 20:47:00,39.7,18.0,30.26,NE,51,0.0,0.0,41,0.00,,,0.00,meteohub,2013-01-19 03:47:00,
2013-01-18 20:52:00,39.6,17.8,30.26,NE,51,0.0,0.0,41,0.00,,,0.00,meteohub,2013-01-19 03:52:00,
2013-01-18 20:57:00,39.4,18.1,30.26,NE,51,0.0,0.0,42,0.00,,,0.00,meteohub,2013-01-19 03:57:00,
2013-01-18 21:02:00,39.4,18.1,30.26,NE,51,0.0,0.0,42,0.00,,,0.00,meteohub,2013-01-19 04:02:00,
2013-01-18 21:07:00,39.6,18.3,30.26,NE,51,0.0,0.0,42,0.00,,,0.00,meteohub,2013-01-19 04:07:00,
2013-01-18 21:12:00,39.6,18.3,-100.00,NE,51,0.0,0.0,42,0.00,,,0.00,meteohub,2013-01-19 04:12:00,
2013-01-18 21:17:00,39.7,18.0,30.26,NE,51,0.0,0.0,41,0.00,,,0.00,meteohub,2013-01-19 04:17:00,
2013-01-18 21:22:00,39.9,18.1,30.26,NE,51,0.0,0.0,41,0.00,,,0.00,meteohub,2013-01-19 04:22:00,
2013-01-18 21:27:00,40.3,18.5,30.26,NE,51,0.0,0.0,41,0.00,,,0.00,meteohub,2013-01-19 04:27:00,
2013-01-18 21:32:00,40.3,18.5,30.26,NE,51,0.0,0.0,41,0.00,,,0.00,meteohub,2013-01-19 04:32:00,
2013-01-18 21:37:00,39.9,18.7,30.26,NE,51,0.0,0.0,42,0.00,,,0.00,meteohub,2013-01-19 04:37:00,
2013-01-18 21:42:00,39.6,18.3,30.26,NE,51,0.0,0.0,42,0.00,,,0.00,meteohub,2013-01-19 04:42:00,
2013-01-18 21:47:00,39.2,18.5,30.26,NE,51,0.0,0.0,43,0.00,,,0.00,meteohub,2013-01-19 04:47:00,
2013-01-18 21:52:00,38.7,18.1,30.26,NE,51,0.0,0.0,43,0.00,,,0.00,meteohub,2013-01-19 04:52:00,
2013-01-18 21:58:00,38.1,18.1,30.26,NE,51,0.0,0.0,44,0.00,,,0.00,meteohub,2013-01-19 04:58:00,
2013-01-18 22:02:00,37.9,18.0,30.26,NE,51,0.0,0.0,44,0.00,,,0.00,meteohub,2013-01-19 05:02:00,
2013-01-18 22:03:00,37.9,18.5,30.26,NE,51,0.0,0.0,45,0.00,,,0.00,meteohub,2013-01-19 05:03:00,
2013-01-18 22:07:00,37.9,18.5,30.26,NE,51,0.0,0.0,45,0.00,,,0.00,meteohub,2013-01-19 05:07:00,
2013-01-18 22:13:00,38.1,18.1,30.26,NE,51,0.0,0.0,44,0.00,,,0.00,meteohub,2013-01-19 05:13:00,
2013-01-18 22:18:00,38.1,18.1,30.26,NE,51,0.0,0.0,44,0.00,,,0.00,meteohub,2013-01-19 05:18:00,
2013-01-18 22:23:00,37.9,18.0,30.26,NE,51,0.0,0.0,44,0.00,,,0.00,meteohub,2013-01-19 05:23:00,
2013-01-18 22:28:00,37.6,17.6,30.26,NE,51,0.0,0.0,44,0.00,,,0.00,meteohub,2013-01-19 05:28:00,
2013-01-18 22:33:00,37.2,17.8,30.26,NE,51,0.0,0.0,45,0.00,,,0.00,meteohub,2013-01-19 05:33:00,
2013-01-18 22:38:00,36.7,17.8,30.26,NE,51,0.0,0.0,46,0.00,,,0.00,meteohub,2013-01-19 05:38:00,
2013-01-18 22:43:00,36.1,17.8,30.26,NE,51,0.0,0.0,47,0.00,,,0.00,meteohub,2013-01-19 05:43:00,
2013-01-18 22:48:00,36.0,18.1,30.26,NE,51,0.0,0.0,48,0.00,,,0.00,meteohub,2013-01-19 05:48:00,
2013-01-18 22:53:00,35.8,18.0,30.26,NE,51,0.0,0.0,48,0.00,,,0.00,meteohub,2013-01-19 05:53:00,
2013-01-18 22:58:00,35.6,17.8,30.26,NE,51,0.0,0.0,48,0.00,,,0.00,meteohub,2013-01-19 05:58:00,
2013-01-18 23:03:00,35.4,17.6,30.26,NE,51,0.0,0.0,48,0.00,,,0.00,meteohub,2013-01-19 06:03:00,
2013-01-18 23:08:00,35.8,18.0,30.26,NE,51,0.0,0.0,48,0.00,,,0.00,meteohub,2013-01-19 06:08:00,
2013-01-18 23:13:00,35.8,18.0,30.26,NE,51,0.0,0.0,48,0.00,,,0.00,meteohub,2013-01-19 06:13:00,
2013-01-18 23:19:00,35.1,16.9,30.26,NE,51,0.0,0.0,47,0.00,,,0.00,meteohub,2013-01-19 06:19:00,
2013-01-18 23:24:00,34.3,16.2,30.26,NE,51,0.0,0.0,47,0.00,,,0.00,meteohub,2013-01-19 06:24:00,
2013-01-18 23:29:00,34.5,16.9,30.26,NE,51,0.0,0.0,48,0.00,,,0.00,meteohub,2013-01-19 06:29:00,
2013-01-18 23:34:00,34.5,16.9,30.26,NE,51,0.0,0.0,48,0.00,,,0.00,meteohub,2013-01-19 06:34:00,
2013-01-18 23:39:00,34.5,17.2,30.26,NE,51,0.0,0.0,49,0.00,,,0.00,meteohub,2013-01-19 06:39:00,
2013-01-18 23:44:00,34.5,17.8,30.26,NE,51,0.0,0.0,50,0.00,,,0.00,meteohub,2013-01-19 06:44:00,
2013-01-18 23:49:00,34.2,18.0,30.26,NE,51,0.0,0.0,51,0.00,,,0.00,meteohub,2013-01-19 06:49:00,
2013-01-18 23:54:00,34.0,17.2,30.26,NE,51,0.0,0.0,50,0.00,,,0.00,meteohub,2013-01-19 06:54:00,
2013-01-18 23:59:00,33.4,16.9,30.26,NE,51,0.0,0.0,50,0.00,,,0.00,meteohub,2013-01-19 06:59:00,